Weather History for Mora, MN

Change the Weather History Date:

Friday, March 8, 2013

  Actual Average Record
Temperature  
Mean Temperature 20 °F -  
Max Temperature 35 °F 35 °F 58 °F (1968)
Min Temperature 6 °F 10 °F -23 °F (1967)
Degree Days  
Heating Degree Days 44    
Moisture  
Dew Point 17 °F    
Average Humidity 75    
Maximum Humidity 93    
Minimum Humidity 60    
Precipitation  
Precipitation 0.00 in - - ()
Sea Level Pressure  
Sea Level Pressure 30.25 in    
Wind  
Wind Speed 2 mph (SE)    
Max Wind Speed 7 mph    
Max Gust Speed -    
Visibility 8 miles    
Events      
Averages and records for this station are not official NWS values.
T = Trace of Precipitation, MM = Missing Value Source: NWS Daily Summary

Daily Weather History Graph

Daily Weather History Graph

Search for Another Location

Airport:

Trip Planner

Search our weather history database for the weather conditions in past years. The results will help you decide how hot, cold, wet, or windy it might be!

Date:

Astronomy

Mar. 08, 2013 Rise Set
Actual Time 6:38 AM CST 6:09 PM CST
Civil Twilight 6:08 AM CST 6:39 PM CST
Nautical Twilight 5:34 AM CST 7:14 PM CST
Astronomical Twilight 4:59 AM CST 7:49 PM CST
Moon 4:32 AM CST (3/8) 2:58 PM CST (3/8)
Length of Visible Light 12h 30m
Length of Day
11h 31m
Waning Crescent, 11% of the Moon is Illuminated
Mar 8
Waning Crescent
Mar 11
New
Mar 19
First Quarter
Mar 27
Full
Apr 2
Last Quarter

Hourly Weather History & Observations

Time (CST) Temp. Windchill Dew Point Humidity Pressure Visibility Wind Dir Wind Speed Gust Speed Precip Events Conditions
12:12 AM 19.4 °F - 10.4 °F 68% 30.31 in 10.0 mi Calm Calm - N/A   Clear
12:32 AM 17.6 °F 12.3 °F 10.4 °F 73% 30.31 in 10.0 mi East 3.5 mph - N/A   Clear
12:52 AM 14.0 °F - 8.6 °F 79% 30.31 in 10.0 mi Calm Calm - N/A   Clear
1:12 AM 14.0 °F - 8.6 °F 79% 30.31 in 10.0 mi Calm Calm - N/A   Clear
1:32 AM 12.2 °F - 6.8 °F 79% 30.32 in 10.0 mi Calm Calm - N/A   Clear
1:52 AM 12.2 °F 6.1 °F 6.8 °F 79% 30.31 in 10.0 mi East 3.5 mph - N/A   Clear
2:12 AM 10.4 °F 4.0 °F 5.0 °F 79% 30.31 in 10.0 mi ESE 3.5 mph - N/A   Clear
2:32 AM 8.6 °F 2.0 °F 5.0 °F 85% 30.31 in 10.0 mi East 3.5 mph - N/A   Clear
2:52 AM 10.4 °F - 6.8 °F 85% 30.31 in 10.0 mi Calm Calm - N/A   Clear
3:12 AM 10.4 °F 4.0 °F 5.0 °F 79% 30.30 in 10.0 mi ESE 3.5 mph - N/A   Clear
3:32 AM 8.6 °F - 5.0 °F 85% 30.30 in 10.0 mi Calm Calm - N/A   Clear
3:52 AM 10.4 °F 4.0 °F 5.0 °F 79% 30.30 in 10.0 mi ESE 3.5 mph - N/A   Clear
4:12 AM 10.4 °F - 6.8 °F 85% 30.29 in 10.0 mi Calm Calm - N/A   Clear
4:32 AM 12.2 °F 6.1 °F 8.6 °F 85% 30.29 in 10.0 mi SE 3.5 mph - N/A   Clear
4:52 AM 8.6 °F - 5.0 °F 85% 30.30 in 10.0 mi Calm Calm - N/A   Clear
5:12 AM 8.6 °F - 5.0 °F 85% 30.30 in 10.0 mi Calm Calm - N/A   Clear
5:32 AM 8.6 °F - 5.0 °F 85% 30.30 in 10.0 mi Calm Calm - N/A   Clear
6:12 AM 8.6 °F - 5.0 °F 85% 30.30 in 7.0 mi Calm Calm - N/A   Clear
6:32 AM 6.8 °F - 3.2 °F 85% 30.30 in 10.0 mi Calm Calm - N/A   Clear
6:52 AM 8.6 °F - 3.2 °F 79% 30.30 in 5.0 mi Calm Calm - N/A   Clear
7:12 AM 8.6 °F - 3.2 °F 79% 30.30 in 7.0 mi Calm Calm - N/A   Clear
7:32 AM 6.8 °F - 3.2 °F 85% 30.30 in 10.0 mi Calm Calm - N/A   Clear
7:52 AM 12.2 °F - 10.4 °F 92% 30.29 in 5.0 mi Calm Calm - N/A   Clear
8:12 AM 15.8 °F - 14.0 °F 93% 30.30 in 5.0 mi Calm Calm - N/A   Clear
8:32 AM 17.6 °F - 14.0 °F 86% 30.30 in 7.0 mi Calm Calm - N/A   Clear
8:52 AM 21.2 °F - 17.6 °F 86% 30.29 in 7.0 mi Calm Calm - N/A   Clear
9:12 AM 23.0 °F 17.0 °F 19.4 °F 86% 30.30 in 7.0 mi South 4.6 mph - N/A   Scattered Clouds
9:32 AM 26.6 °F 22.6 °F 19.4 °F 74% 30.30 in 7.0 mi South 3.5 mph - N/A   Scattered Clouds
9:52 AM 26.6 °F 21.2 °F 19.4 °F 74% 30.30 in 7.0 mi South 4.6 mph - N/A   Scattered Clouds
10:12 AM 28.4 °F 23.3 °F 19.4 °F 69% 30.30 in 7.0 mi South 4.6 mph - N/A   Scattered Clouds
10:32 AM 30.2 °F 26.7 °F 19.4 °F 64% 30.28 in 7.0 mi South 3.5 mph - N/A   Scattered Clouds
10:52 AM 32.0 °F 28.7 °F 21.2 °F 64% 30.28 in 7.0 mi SSE 3.5 mph - N/A   Clear
11:12 AM 32.0 °F 27.5 °F 21.2 °F 64% 30.28 in 7.0 mi South 4.6 mph - N/A   Clear
11:32 AM 32.0 °F 28.7 °F 21.2 °F 64% 30.29 in 7.0 mi South 3.5 mph - N/A   Clear
11:52 AM 32.0 °F 26.4 °F 21.2 °F 64% 30.28 in 7.0 mi SSE 5.8 mph - N/A   Clear
12:12 PM 32.0 °F 26.4 °F 21.2 °F 64% 30.27 in 7.0 mi South 5.8 mph - N/A   Clear
12:32 PM 33.8 °F 30.8 °F 21.2 °F 60% 30.27 in 7.0 mi SE 3.5 mph - N/A   Clear
12:52 PM 33.8 °F 28.6 °F 21.2 °F 60% 30.26 in 7.0 mi South 5.8 mph - N/A   Clear
1:12 PM 33.8 °F 27.7 °F 23.0 °F 65% 30.25 in 7.0 mi South 6.9 mph - N/A   Clear
1:32 PM 35.6 °F 29.9 °F 23.0 °F 60% 30.24 in 10.0 mi South 6.9 mph - N/A   Clear
1:52 PM 35.6 °F 31.7 °F 23.0 °F 60% 30.24 in 7.0 mi South 4.6 mph - N/A   Clear
2:12 PM 35.6 °F - 23.0 °F 60% 30.23 in 10.0 mi Calm Calm - N/A   Clear
2:32 PM 35.6 °F 30.7 °F 23.0 °F 60% 30.23 in 7.0 mi SE 5.8 mph - N/A   Clear
2:52 PM 35.6 °F 31.7 °F 23.0 °F 60% 30.24 in 10.0 mi ESE 4.6 mph - N/A   Clear
3:12 PM 35.6 °F - 23.0 °F 60% 30.23 in 7.0 mi Calm Calm - N/A   Clear
3:32 PM 35.6 °F - 23.0 °F 60% 30.23 in 10.0 mi Calm Calm - N/A   Clear
3:52 PM 35.6 °F - 23.0 °F 60% 30.23 in 10.0 mi Calm Calm - N/A   Clear
4:12 PM 35.6 °F 32.8 °F 23.0 °F 60% 30.23 in 10.0 mi South 3.5 mph - N/A   Clear
4:32 PM 35.6 °F 31.7 °F 24.8 °F 65% 30.23 in 10.0 mi South 4.6 mph - N/A   Clear
4:52 PM 33.8 °F 29.6 °F 24.8 °F 70% 30.23 in 10.0 mi ESE 4.6 mph - N/A   Clear
5:12 PM 33.8 °F 29.6 °F 24.8 °F 70% 30.22 in 10.0 mi East 4.6 mph - N/A   Clear
5:32 PM 33.8 °F 30.8 °F 24.8 °F 70% 30.22 in 10.0 mi East 3.5 mph - N/A   Clear
5:52 PM 32.0 °F 26.4 °F 23.0 °F 69% 30.21 in 10.0 mi ESE 5.8 mph - N/A   Clear
6:12 PM 32.0 °F 28.7 °F 23.0 °F 69% 30.20 in 10.0 mi ESE 3.5 mph - N/A   Clear
6:32 PM 32.0 °F 28.7 °F 23.0 °F 69% 30.20 in 10.0 mi SE 3.5 mph - N/A   Clear
6:52 PM 32.0 °F - 24.8 °F 75% 30.20 in 10.0 mi Calm Calm - N/A   Clear
7:12 PM 32.0 °F - 24.8 °F 75% 30.19 in 10.0 mi Calm Calm - N/A   Clear
7:32 PM 30.2 °F 26.7 °F 23.0 °F 75% 30.18 in 7.0 mi East 3.5 mph - N/A   Clear
7:52 PM 28.4 °F - 23.0 °F 80% 30.18 in 7.0 mi Calm Calm - N/A   Clear
8:12 PM 28.4 °F 24.6 °F 23.0 °F 80% 30.17 in 7.0 mi East 3.5 mph - N/A   Clear
8:32 PM 26.6 °F - 21.2 °F 80% 30.17 in 7.0 mi Calm Calm - N/A   Clear
8:52 PM 26.6 °F 22.6 °F 23.0 °F 86% 30.16 in 7.0 mi East 3.5 mph - N/A   Clear
9:12 PM 26.6 °F - 23.0 °F 86% 30.16 in 7.0 mi Calm Calm - N/A   Clear
9:32 PM 26.6 °F 22.6 °F 23.0 °F 86% 30.15 in 7.0 mi East 3.5 mph - N/A   Clear
9:52 PM 26.6 °F 22.6 °F 23.0 °F 86% 30.15 in 7.0 mi East 3.5 mph - N/A   Clear
10:12 PM 26.6 °F 22.6 °F 23.0 °F 86% 30.14 in 7.0 mi East 3.5 mph - N/A   Clear
10:32 PM 24.8 °F 20.5 °F 21.2 °F 86% 30.13 in 7.0 mi East 3.5 mph - N/A   Clear
10:52 PM 24.8 °F 20.5 °F 21.2 °F 86% 30.13 in 7.0 mi East 3.5 mph - N/A   Clear
11:12 PM 24.8 °F - 21.2 °F 86% 30.12 in 7.0 mi Calm Calm - N/A   Clear
11:32 PM 24.8 °F 20.5 °F 21.2 °F 86% 30.10 in 7.0 mi East 3.5 mph - N/A   Clear
11:52 PM 26.6 °F - 21.2 °F 80% 30.10 in 7.0 mi Calm Calm - N/A   Scattered Clouds